Погода в Архаре

Погода в Архаре : погода сейчас, прогноз погоды и архив. Всё, что Вы хотите узнать о погоде в Архаре!

Хотите узнать прогноз погоды в Архаре? Тогда Вам сюда: Погода в Архаре

Поиск расширенной информации на нашем сайте:

Другие новости

Новости СМИ2

Главная страница сайта

Новости сайта

03.07.2017

Напоминаем, что на нашем специализированном сайте Метеоцентр.Азия вы можете получить высокодетализированные автоматические прогнозы погоды по пунктам России, СНГ и мира в авиационном формате (включающие направление и скорость ветра, видимость, явления погоды, количество и форму облачности, нижнюю и верхнюю границу облачности).

Рекомендуем: Описание офигенное радио на нашем сайте.

Погода в Архаре - сегодня

Время (UTC), дата Ветер
(°,м/с) 
Видим.   Явления Облачность Т
(°С)
Тd
(°С)
f(%) Тe
(°С)
Pmin
(гПа)
dP
(гПа)
Po
(мм)
O2
(г/м3)
Тmin Tmax R s Состояние
почвы
18 15.10.17 150 (ЮВ) 20000 м    ясно 
-2.5 -9 61 -4  1027.2  -0.5  757  309           
21 15.10.17 130 (ЮВ) 20000 м    3/0 верхняя 
[Ci fib]
-3.3 -8.9 65 -4  1026.5  -0.8  757  310           
00 16.10.17 140 (ЮВ) 20000 м    10/0 средняя, верхняя 
[Ac trans|Ci fib]
+0.4 -7.8 54 1026.1  -0.2  757  305  -7        сухая 
03 16.10.17 120 (ЮВ) 20000 м    10/0 средняя, верхняя 
[Ac trans|Ci fib]
+7.7 -8.5 31 +9  1023.6  -1.9  755  297           
06 16.10.17 220 (ЮЗ) 1{10}  20000 м    10/4 600 м кучево-дожд., средняя, верхняя 
[Cb cap|Ac trans|Ci fib]
+6.2 -7.1 38 +7  1022  -1.7  754  298           
09 16.10.17 120 (ЮВ) 20000 м  {ливн. осадки}  10/6 600 м кучево-дожд., средняя, верхняя 
[Cb cap|Ac trans|Ci fib]
+2.5 -2.6 69 +3  1021.7  -0.5  754  301           
12 16.10.17 120 (ЮВ) 20000 м  {ливн. осадки}  10/3 1000 м кучево-дожд., средняя, верхняя 
[Cb cap|Ac trans|Ci fib]
+1 -3.3 73 +2  1021.7  -0.1  753  303    +8.7  0.0     
15 16.10.17 280 (З) 20000 м    10/4 1000 м кучево-дожд., средняя 
[Cb cap|Ac und]
-0.6 -4.9 73 -1  1021.6  -0.1  753  305           
18 16.10.17 300 (СЗ) 20000 м    10/8 600 м кучево-дожд., средняя 
[Cb cap|Ac und]
-2 -4 86 -3  1022.9  1.2  754  307           
21 16.10.17 310 (СЗ) 20000 м  {ливн. осадки}  4/0 средняя, верхняя 
[Ac trans|Ci fib]
-1.9 -4.9 80 -4  1025.1  2.2  756  307           
00 17.10.17 320 (СЗ) 20000 м  {ливн. осадки}  ясно 
-1.9 -11.8 47 -5  1028.7  3.5  758  309  -3.6    0.0    сухая 
03 17.10.17 290 (З) 6-10{10}  20000 м    ясно 
+2.5 -13.8 29 1029.7  1.3  759  304           
06 17.10.17 300 (СЗ) 5-12{12}  20000 м    ясно 
+3.7 -15.5 23 +1  1029.1  -0.6  759  303           
09 17.10.17 320 (СЗ) 2{12}  20000 м    ясно 
-1 -14.6 35 -2  1029.7  0.3  759  308           
12 17.10.17 260 (З) 20000 м    ясно 
-6.7 -12.2 65 -6  1030.4  0.3  760  315    +4       
15 17.10.17 010 (С) 20000 м    ясно 
-8.7 -12.1 76 -8  1031.2  0.6  760  317           
18 17.10.17 тихо ()   20000 м    ясно 
-10.3 -12.1 87 -10  1030.9  -0.4  760  319           
21 17.10.17 110 (В) 20000 м    3/0 верхняя 
[Ci fib]
-6.1 -12.4 61 -6  1029.6  -1  759  314           
00 18.10.17 140 (ЮВ) 20000 м    10/0 верхняя 
[Cs]
-2.4 -11.5 50 -3  1029.2  -0.1  759  310  -10.6        замёрзшая 
03 18.10.17 140 (ЮВ) 20000 м    10/0 средняя, верхняя 
[Ac trans|Cs]
+3.8 -10.4 35 +3  1027  -1.8  758  302           
06 18.10.17 120 (ЮВ) 20000 м    10/0 средняя, верхняя 
[Ac trans|Cs]
+6.6 -10.6 28 +6  1023.8  -3  755  298           
09 18.10.17 100 (В) 20000 м    10/4 1000 м кучево-дожд., средняя, верхняя 
[Cb cap|Ac trans|Ci fib]
+3.6 -11.8 31 +3  1022.4  -1.6  754  301           
12 18.10.17 110 (В) 20000 м    10/10 1000 м кучево-дожд. 
[Cb cap]
+2.5 -10.7 37 +2  1021.9  -0.5  754  302    +7.2       
15 18.10.17 130 (ЮВ) 20000 м    10/10 1000 м кучево-дожд. 
[Cb cap]
+2.2 -9.7 41 +2  1020.7  -1.1  753  302           
18 18.10.17 110 (В) 20000 м    10/0 верхняя 
[Ci fib]
+0.7 -10.5 43 1019.7  -1.1  752  303           
Время (UTC), дата Ветер
(°,м/с) 
Видим.   Явления Облачность Т
(°С)
Тd
(°С)
f(%) Тe
(°С)
Pmin
(гПа)
dP
(гПа)
Po
(мм)
O2
(г/м3)
Тmin Tmax R s Состояние
почвы

Для получения пояснительной информации подведите курсор к названию столбца.

ПОГОДА в Архаре - архив

Всё, что Вы хотите узнать о погоде в Архаре - удобно и подробно!

Выберите нужную дату (начиная с 1 января 2015* года) и нажмите кнопку "Найти".
Будут отображены архивные сводки погоды по пункту Архара, начиная с указанной даты.


Отображать данные в формате CSV (для использования в таблицах Excel)


Внимание! Наш архив погоды предназначен исключительно для личного некоммерческого использования в познавательных целях. Если Вам необходимы официальные справки о состоянии погоды (для производственных, юридических, коммерческих и т.п. целей), обращайтесь в органы Росгидромета.

*Примечание: данная дата относится к архиву по метеостанциям СССР (Россия, СНГ, Балтия).
Архив по метеостанциям Зарубежной Европы и Азии (кроме Китая) хранится 10 дней, по другим регионам земного шара (Китай, Африка, Америка, Австралия, Океания) - 1 день.

Архара - район местоположения метеостанции


Название, широта, долгота, высота метеостанции:
Архара 49.4°ш. 130.1°д. 135 м над ур. моря [Российская Федерация]

Дополнительная информация

В oтличие oт бoльшинства пoгoдных сайтoв мы публикуем пoдрoбную метеoинфoрмацию в детальнoм прoфессиoнальнoм фoрмате.

Характеристики температуры и влажнoсти вoздуха измеряются на высoте 2 м в тени вдали oт зданий и деревьев.
Скoрoсть ветра измеряется на высoте 10 м (на урoвне рoста челoвека скoрoсть ветра ниже в 1.5-2 раза). Если метеoстанция нахoдится в гoрoде или в лесу, тo скoрoсть ветра занижена на 2-4 м/с пo сравнению с oткрытым местoм. Скoрoсть ветра над акватoриями крупных рек и oзёр, а также на вершинах хoлмoв на 2-5 м/с выше, чем в oбычных услoвиях.
Атмoсфернoе давление в разных тoчках местнoсти мoжет значительнo oтличаться oт давления на метеoстанции, в зависимoсти oт услoвий рельефа (при пoдъёме на 10 м давление пoнижается примернo на 1 мм рт.ст.).